Location: Allie Creek
(37.5926°N, 89.8526°W)
Time: 19:15:29
(UTC+00:00)

Cosmos 1805 Rocket - Pass Details

Date: 26 September 2023
Orbit: 604 x 626 km, 82.5° (Epoch: 08 December)

Event Time Altitude Azimuth Distance (km) Brightness Sun altitude
Rises 11:01:39 0° 348° (NNW) 2,867 6.9 -10.5°
Reaches altitude 10° 11:03:53 10° 346° (NNW) 1,961 6.1 -10.0°
Maximum altitude 11:08:09 61° 266° (W) 689 3.5 -9.2°
Drops below altitude 10° 11:12:25 10° 186° (S) 1,955 6.0 -8.4°
Sets 11:14:39 0° 183° (S) 2,858 6.9 -7.9°
